Time,TemperatureF,DewpointF,PressureIn,WindDirection,WindDirectionDegrees,WindSpeedMPH,WindSpeedGustMPH,Humidity,HourlyPrecipIn,Conditions,Clouds,dailyrainin,SoftwareType,DateUTC
2013-05-29 00:01:00,51.0,0.0,29.50,West,270,0.0,0.0,0,0.00,,,0.00,Weather View 32 v70,2013-05-29 07:01:00,
2013-05-29 00:06:00,51.0,0.0,29.50,WNW,292,0.0,0.0,0,0.00,,,0.00,Weather View 32 v70,2013-05-29 07:06:00,
2013-05-29 00:11:00,51.0,0.0,29.50,WNW,292,0.0,0.0,0,0.00,,,0.00,Weather View 32 v70,2013-05-29 07:11:00,
2013-05-29 00:16:00,51.0,0.0,29.49,SSW,202,0.0,0.0,0,0.00,,,0.00,Weather View 32 v70,2013-05-29 07:16:00,
2013-05-29 00:21:00,51.0,0.0,29.49,WNW,292,0.0,0.0,0,0.00,,,0.00,Weather View 32 v70,2013-05-29 07:21:00,
2013-05-29 00:26:00,51.0,0.0,29.49,NNW,338,0.0,0.0,0,0.00,,,0.00,Weather View 32 v70,2013-05-29 07:26:00,
2013-05-29 00:31:00,51.0,0.0,29.48,NNW,338,0.0,0.0,0,0.00,,,0.00,Weather View 32 v70,2013-05-29 07:31:00,
2013-05-29 00:36:00,51.0,0.0,29.48,NNW,338,0.0,0.0,0,0.00,,,0.00,Weather View 32 v70,2013-05-29 07:36:00,
2013-05-29 00:41:00,51.0,0.0,29.48,NNW,338,0.0,0.0,0,0.00,,,0.00,Weather View 32 v70,2013-05-29 07:41:00,
2013-05-29 00:46:00,51.0,0.0,29.48,WSW,248,0.0,0.0,0,0.00,,,0.00,Weather View 32 v70,2013-05-29 07:46:00,
2013-05-29 00:51:00,51.0,0.0,29.48,West,270,0.0,0.0,0,0.00,,,0.00,Weather View 32 v70,2013-05-29 07:51:00,
2013-05-29 00:56:00,51.0,0.0,29.47,NW,315,0.0,0.0,0,0.00,,,0.00,Weather View 32 v70,2013-05-29 07:56:00,
2013-05-29 01:01:00,51.0,0.0,29.47,WNW,292,0.0,0.0,0,0.00,,,0.00,Weather View 32 v70,2013-05-29 08:01:00,
2013-05-29 01:06:00,51.0,0.0,29.48,WNW,292,0.0,0.0,0,0.00,,,0.00,Weather View 32 v70,2013-05-29 08:06:00,
2013-05-29 01:11:00,51.0,0.0,29.47,North,0,0.0,0.0,0,0.00,,,0.00,Weather View 32 v70,2013-05-29 08:11:00,
2013-05-29 01:16:00,51.0,0.0,29.47,North,0,0.0,0.0,0,0.00,,,0.00,Weather View 32 v70,2013-05-29 08:16:00,
2013-05-29 01:21:00,51.0,0.0,29.47,NW,315,0.0,0.0,0,0.00,,,0.00,Weather View 32 v70,2013-05-29 08:21:00,
2013-05-29 01:26:00,51.0,0.0,29.48,WNW,292,0.0,0.0,0,0.00,,,0.00,Weather View 32 v70,2013-05-29 08:26:00,
2013-05-29 01:31:00,51.0,0.0,29.48,West,270,0.0,0.0,0,0.00,,,0.00,Weather View 32 v70,2013-05-29 08:31:00,
2013-05-29 01:36:00,51.0,0.0,29.47,NNW,338,0.0,0.0,0,0.00,,,0.00,Weather View 32 v70,2013-05-29 08:36:00,
2013-05-29 01:41:00,51.0,0.0,29.47,NNW,338,0.0,0.0,0,0.00,,,0.00,Weather View 32 v70,2013-05-29 08:41:00,
2013-05-29 01:46:00,51.0,0.0,29.47,NNW,338,0.0,0.0,0,0.00,,,0.00,Weather View 32 v70,2013-05-29 08:46:00,
2013-05-29 01:51:00,51.0,0.0,29.47,NNW,338,0.0,0.0,0,0.00,,,0.00,Weather View 32 v70,2013-05-29 08:51:00,
2013-05-29 01:56:00,51.0,0.0,29.47,NW,315,0.0,0.0,0,0.00,,,0.00,Weather View 32 v70,2013-05-29 08:56:00,
2013-05-29 02:01:00,51.0,0.0,29.47,WNW,292,0.0,0.0,0,0.00,,,0.00,Weather View 32 v70,2013-05-29 09:01:00,
2013-05-29 02:06:00,51.0,0.0,29.46,NNW,338,0.0,0.0,0,0.00,,,0.00,Weather View 32 v70,2013-05-29 09:06:00,
2013-05-29 02:11:00,51.0,0.0,29.46,NNW,338,0.0,0.0,0,0.00,,,0.00,Weather View 32 v70,2013-05-29 09:11:00,
2013-05-29 02:16:00,51.0,0.0,29.46,WNW,292,0.0,0.0,0,0.00,,,0.00,Weather View 32 v70,2013-05-29 09:16:00,
2013-05-29 02:21:00,51.0,0.0,29.45,NW,315,0.0,0.0,0,0.00,,,0.00,Weather View 32 v70,2013-05-29 09:21:00,
2013-05-29 02:26:00,51.0,0.0,29.45,NNW,338,0.0,0.0,0,0.00,,,0.00,Weather View 32 v70,2013-05-29 09:26:00,
2013-05-29 02:31:00,51.0,0.0,29.45,NNW,338,0.0,0.0,0,0.00,,,0.00,Weather View 32 v70,2013-05-29 09:31:00,
2013-05-29 02:36:00,51.0,0.0,29.45,NNW,338,0.0,0.0,0,0.00,,,0.00,Weather View 32 v70,2013-05-29 09:36:00,
2013-05-29 02:41:00,51.0,0.0,29.45,NNW,338,0.0,0.0,0,0.00,,,0.00,Weather View 32 v70,2013-05-29 09:41:00,
2013-05-29 02:46:00,51.0,0.0,29.45,NW,315,0.0,0.0,0,0.00,,,0.00,Weather View 32 v70,2013-05-29 09:46:00,
2013-05-29 02:51:00,51.0,0.0,29.45,WNW,292,0.0,0.0,0,0.00,,,0.00,Weather View 32 v70,2013-05-29 09:51:00,
2013-05-29 02:56:00,50.0,0.0,29.45,WNW,292,0.0,0.0,0,0.00,,,0.00,Weather View 32 v70,2013-05-29 09:56:00,
2013-05-29 03:01:00,50.0,0.0,29.45,SW,225,0.0,0.0,0,0.00,,,0.00,Weather View 32 v70,2013-05-29 10:01:00,
2013-05-29 03:06:00,50.0,0.0,29.45,WSW,248,0.0,0.0,0,0.00,,,0.00,Weather View 32 v70,2013-05-29 10:06:00,
2013-05-29 03:11:00,50.0,0.0,29.45,NW,315,0.0,0.0,0,0.00,,,0.00,Weather View 32 v70,2013-05-29 10:11:00,
2013-05-29 03:16:00,50.0,0.0,29.45,NW,315,0.0,0.0,0,0.00,,,0.00,Weather View 32 v70,2013-05-29 10:16:00,
2013-05-29 03:21:00,50.0,0.0,29.45,West,270,0.0,0.0,0,0.00,,,0.00,Weather View 32 v70,2013-05-29 10:21:00,
2013-05-29 03:26:00,50.0,0.0,29.45,WNW,292,0.0,0.0,0,0.00,,,0.00,Weather View 32 v70,2013-05-29 10:26:00,
2013-05-29 03:31:00,50.0,0.0,29.45,South,180,0.0,0.0,0,0.00,,,0.00,Weather View 32 v70,2013-05-29 10:31:00,
2013-05-29 03:36:00,50.0,0.0,29.45,SSW,202,0.0,0.0,0,0.00,,,0.00,Weather View 32 v70,2013-05-29 10:36:00,
2013-05-29 03:41:00,50.0,0.0,29.46,SSE,158,0.0,0.0,0,0.00,,,0.00,Weather View 32 v70,2013-05-29 10:41:00,
2013-05-29 03:46:00,50.0,0.0,29.46,WSW,248,0.0,0.0,0,0.01,,,0.01,Weather View 32 v70,2013-05-29 10:46:00,
2013-05-29 03:51:00,50.0,0.0,29.45,WSW,248,0.0,0.0,0,0.01,,,0.01,Weather View 32 v70,2013-05-29 10:51:00,
2013-05-29 03:56:00,50.0,0.0,29.45,WSW,248,0.0,0.0,0,0.01,,,0.01,Weather View 32 v70,2013-05-29 10:56:00,
2013-05-29 04:01:00,50.0,0.0,29.45,WSW,248,0.0,0.0,0,0.02,,,0.02,Weather View 32 v70,2013-05-29 11:01:00,
2013-05-29 04:06:00,50.0,0.0,29.45,WSW,248,0.0,0.0,0,0.03,,,0.03,Weather View 32 v70,2013-05-29 11:06:00,
2013-05-29 04:11:00,50.0,0.0,29.45,West,270,0.0,0.0,0,0.05,,,0.06,Weather View 32 v70,2013-05-29 11:11:00,
2013-05-29 04:16:00,50.0,0.0,29.45,SW,225,0.0,0.0,0,0.07,,,0.08,Weather View 32 v70,2013-05-29 11:16:00,
2013-05-29 04:21:00,50.0,0.0,29.45,SE,135,0.0,0.0,0,0.09,,,0.09,Weather View 32 v70,2013-05-29 11:21:00,
2013-05-29 04:26:00,49.0,0.0,29.45,SE,135,0.0,0.0,0,0.10,,,0.10,Weather View 32 v70,2013-05-29 11:26:00,
2013-05-29 04:31:00,49.0,0.0,29.45,East,90,0.0,0.0,0,0.11,,,0.11,Weather View 32 v70,2013-05-29 11:31:00,
2013-05-29 04:36:00,50.0,0.0,29.45,East,90,0.0,0.0,0,0.12,,,0.12,Weather View 32 v70,2013-05-29 11:36:00,
2013-05-29 04:41:00,49.0,0.0,29.45,ESE,112,0.0,0.0,0,0.12,,,0.12,Weather View 32 v70,2013-05-29 11:41:00,
2013-05-29 04:46:00,49.0,0.0,29.45,ESE,112,0.0,0.0,0,0.12,,,0.13,Weather View 32 v70,2013-05-29 11:46:00,
2013-05-29 04:51:00,49.0,0.0,29.45,SSW,202,0.0,0.0,0,0.12,,,0.14,Weather View 32 v70,2013-05-29 11:51:00,
2013-05-29 04:56:00,49.0,0.0,29.45,SW,225,0.0,0.0,0,0.13,,,0.14,Weather View 32 v70,2013-05-29 11:56:00,
2013-05-29 05:01:00,50.0,0.0,29.45,WSW,248,0.0,0.0,0,0.13,,,0.15,Weather View 32 v70,2013-05-29 12:01:00,
2013-05-29 05:06:00,50.0,0.0,29.45,WSW,248,0.0,0.0,0,0.12,,,0.15,Weather View 32 v70,2013-05-29 12:06:00,
2013-05-29 05:11:00,50.0,0.0,29.45,West,270,0.0,0.0,0,0.11,,,0.16,Weather View 32 v70,2013-05-29 12:11:00,
2013-05-29 05:16:00,49.0,0.0,29.45,NNE,22,0.0,0.0,0,0.09,,,0.16,Weather View 32 v70,2013-05-29 12:16:00,
2013-05-29 05:21:00,49.0,0.0,29.45,NNE,22,0.0,0.0,0,0.07,,,0.16,Weather View 32 v70,2013-05-29 12:21:00,
2013-05-29 05:26:00,49.0,0.0,29.45,NNE,22,0.0,0.0,0,0.06,,,0.16,Weather View 32 v70,2013-05-29 12:26:00,
2013-05-29 05:31:00,49.0,0.0,29.45,NNE,22,0.0,0.0,0,0.06,,,0.17,Weather View 32 v70,2013-05-29 12:31:00,
2013-05-29 05:36:00,49.0,0.0,29.45,NE,45,0.0,0.0,0,0.05,,,0.17,Weather View 32 v70,2013-05-29 12:36:00,
2013-05-29 05:41:00,49.0,0.0,29.45,NE,45,0.0,0.0,0,0.06,,,0.18,Weather View 32 v70,2013-05-29 12:41:00,
2013-05-29 05:46:00,49.0,0.0,29.45,NE,45,0.0,0.0,0,0.05,,,0.18,Weather View 32 v70,2013-05-29 12:46:00,
2013-05-29 05:51:00,49.0,0.0,29.45,NE,45,0.0,0.0,0,0.06,,,0.19,Weather View 32 v70,2013-05-29 12:51:00,
2013-05-29 05:56:00,49.0,0.0,29.45,NE,45,0.0,0.0,0,0.05,,,0.19,Weather View 32 v70,2013-05-29 12:56:00,
2013-05-29 06:01:00,49.0,0.0,29.45,NE,45,0.0,0.0,0,0.05,,,0.20,Weather View 32 v70,2013-05-29 13:01:00,
2013-05-29 06:06:00,49.0,0.0,29.45,NE,45,0.0,0.0,0,0.05,,,0.20,Weather View 32 v70,2013-05-29 13:06:00,
2013-05-29 06:11:00,49.0,0.0,29.45,ESE,112,0.0,0.0,0,0.04,,,0.20,Weather View 32 v70,2013-05-29 13:11:00,
2013-05-29 06:16:00,49.0,0.0,29.45,ESE,112,0.0,0.0,0,0.05,,,0.21,Weather View 32 v70,2013-05-29 13:16:00,
2013-05-29 06:21:00,49.0,0.0,29.44,ESE,112,0.0,0.0,0,0.05,,,0.21,Weather View 32 v70,2013-05-29 13:21:00,
2013-05-29 06:26:00,49.0,0.0,29.45,SSW,202,0.0,0.0,0,0.05,,,0.21,Weather View 32 v70,2013-05-29 13:26:00,
2013-05-29 06:31:00,49.0,0.0,29.44,South,180,0.0,0.0,0,0.04,,,0.21,Weather View 32 v70,2013-05-29 13:31:00,
2013-05-29 06:36:00,49.0,0.0,29.44,South,180,0.0,0.0,0,0.04,,,0.21,Weather View 32 v70,2013-05-29 13:36:00,
2013-05-29 06:41:00,49.0,0.0,29.44,SSE,158,0.0,0.0,0,0.04,,,0.22,Weather View 32 v70,2013-05-29 13:41:00,
2013-05-29 06:46:00,49.0,0.0,29.44,South,180,0.0,0.0,0,0.04,,,0.22,Weather View 32 v70,2013-05-29 13:46:00,
2013-05-29 06:51:00,49.0,0.0,29.44,South,180,0.0,0.0,0,0.03,,,0.22,Weather View 32 v70,2013-05-29 13:51:00,
2013-05-29 06:56:00,49.0,0.0,29.44,South,180,0.0,0.0,0,0.03,,,0.22,Weather View 32 v70,2013-05-29 13:56:00,
2013-05-29 07:01:00,49.0,0.0,29.44,SE,135,0.0,0.0,0,0.02,,,0.22,Weather View 32 v70,2013-05-29 14:01:00,
2013-05-29 07:06:00,49.0,0.0,29.44,ENE,68,0.0,0.0,0,0.02,,,0.22,Weather View 32 v70,2013-05-29 14:06:00,
2013-05-29 07:11:00,49.0,0.0,29.44,East,90,0.0,0.0,0,0.02,,,0.22,Weather View 32 v70,2013-05-29 14:11:00,
2013-05-29 07:16:00,49.0,0.0,29.44,ESE,112,0.0,0.0,0,0.01,,,0.22,Weather View 32 v70,2013-05-29 14:16:00,
2013-05-29 07:21:00,49.0,0.0,29.44,ESE,112,0.0,0.0,0,0.01,,,0.22,Weather View 32 v70,2013-05-29 14:21:00,
2013-05-29 07:26:00,49.0,0.0,29.44,SE,135,0.0,0.0,0,0.01,,,0.22,Weather View 32 v70,2013-05-29 14:26:00,
2013-05-29 07:31:00,49.0,0.0,29.44,ESE,112,0.0,0.0,0,0.01,,,0.22,Weather View 32 v70,2013-05-29 14:31:00,
2013-05-29 07:36:00,49.0,0.0,29.44,SE,135,0.0,0.0,0,0.01,,,0.22,Weather View 32 v70,2013-05-29 14:36:00,
2013-05-29 07:41:00,49.0,0.0,29.44,SW,225,0.0,0.0,0,0.00,,,0.22,Weather View 32 v70,2013-05-29 14:41:00,
2013-05-29 07:46:00,49.0,0.0,29.44,SSE,158,0.0,0.0,0,0.00,,,0.22,Weather View 32 v70,2013-05-29 14:46:00,
2013-05-29 07:51:00,49.0,0.0,29.44,SE,135,0.0,0.0,0,0.00,,,0.22,Weather View 32 v70,2013-05-29 14:51:00,
2013-05-29 07:56:00,49.0,0.0,29.44,SE,135,0.0,0.0,0,0.00,,,0.22,Weather View 32 v70,2013-05-29 14:56:00,
2013-05-29 08:01:00,49.0,0.0,29.44,SE,135,0.0,0.0,0,0.00,,,0.22,Weather View 32 v70,2013-05-29 15:01:00,
2013-05-29 08:06:00,50.0,0.0,29.45,SE,135,0.0,0.0,0,0.00,,,0.22,Weather View 32 v70,2013-05-29 15:06:00,
2013-05-29 08:11:00,50.0,0.0,29.45,SSE,158,0.0,0.0,0,0.00,,,0.22,Weather View 32 v70,2013-05-29 15:11:00,
2013-05-29 08:16:00,50.0,0.0,29.45,SSW,202,0.0,0.0,0,0.00,,,0.22,Weather View 32 v70,2013-05-29 15:16:00,
2013-05-29 08:21:00,50.0,0.0,29.45,SSW,202,0.0,0.0,0,0.00,,,0.22,Weather View 32 v70,2013-05-29 15:21:00,
2013-05-29 08:26:00,50.0,0.0,29.45,SSE,158,0.0,0.0,0,0.00,,,0.22,Weather View 32 v70,2013-05-29 15:26:00,
2013-05-29 08:31:00,50.0,0.0,29.45,SSE,158,0.0,0.0,0,0.00,,,0.22,Weather View 32 v70,2013-05-29 15:31:00,
2013-05-29 08:36:00,50.0,0.0,29.45,SE,135,0.0,0.0,0,0.00,,,0.22,Weather View 32 v70,2013-05-29 15:36:00,
2013-05-29 08:41:00,50.0,0.0,29.45,SE,135,0.0,0.0,0,0.00,,,0.22,Weather View 32 v70,2013-05-29 15:41:00,
2013-05-29 08:46:00,51.0,0.0,29.45,SW,225,0.0,0.0,0,0.00,,,0.22,Weather View 32 v70,2013-05-29 15:46:00,
2013-05-29 08:51:00,51.0,0.0,29.45,SSW,202,0.0,0.0,0,0.00,,,0.22,Weather View 32 v70,2013-05-29 15:51:00,
2013-05-29 08:56:00,51.0,0.0,29.46,SE,135,0.0,0.0,0,0.00,,,0.22,Weather View 32 v70,2013-05-29 15:56:00,
2013-05-29 09:01:00,51.0,0.0,29.46,SW,225,0.0,0.0,0,0.00,,,0.22,Weather View 32 v70,2013-05-29 16:01:00,
2013-05-29 09:06:00,51.0,0.0,29.46,SW,225,0.0,0.0,0,0.00,,,0.22,Weather View 32 v70,2013-05-29 16:06:00,
2013-05-29 09:11:00,51.0,0.0,29.46,SW,225,0.0,0.0,0,0.00,,,0.22,Weather View 32 v70,2013-05-29 16:11:00,
2013-05-29 09:16:00,51.0,0.0,29.46,SW,225,0.0,0.0,0,0.00,,,0.22,Weather View 32 v70,2013-05-29 16:16:00,
2013-05-29 09:21:00,51.0,0.0,29.47,SSW,202,0.0,0.0,0,0.00,,,0.22,Weather View 32 v70,2013-05-29 16:21:00,
2013-05-29 09:26:00,51.0,0.0,29.47,NW,315,0.0,0.0,0,0.00,,,0.22,Weather View 32 v70,2013-05-29 16:26:00,
2013-05-29 09:31:00,51.0,0.0,29.47,North,0,0.0,0.0,0,0.00,,,0.22,Weather View 32 v70,2013-05-29 16:31:00,
2013-05-29 09:36:00,52.0,0.0,29.47,ESE,112,0.0,0.0,0,0.00,,,0.22,Weather View 32 v70,2013-05-29 16:36:00,
2013-05-29 09:41:00,52.0,0.0,29.47,ESE,112,0.0,0.0,0,0.00,,,0.22,Weather View 32 v70,2013-05-29 16:41:00,
2013-05-29 09:46:00,52.0,0.0,29.47,WSW,248,0.0,0.0,0,0.00,,,0.22,Weather View 32 v70,2013-05-29 16:46:00,
2013-05-29 09:51:00,52.0,0.0,29.48,South,180,0.0,0.0,0,0.00,,,0.22,Weather View 32 v70,2013-05-29 16:51:00,
2013-05-29 09:56:00,52.0,0.0,29.48,South,180,0.0,0.0,0,0.00,,,0.22,Weather View 32 v70,2013-05-29 16:56:00,
2013-05-29 10:01:00,52.0,0.0,29.48,WSW,248,0.0,0.0,0,0.00,,,0.22,Weather View 32 v70,2013-05-29 17:01:00,
2013-05-29 10:06:00,52.0,0.0,29.48,East,90,0.0,0.0,0,0.00,,,0.22,Weather View 32 v70,2013-05-29 17:06:00,
2013-05-29 10:11:00,52.0,0.0,29.49,NNW,338,0.0,0.0,0,0.00,,,0.22,Weather View 32 v70,2013-05-29 17:11:00,
2013-05-29 10:16:00,52.0,0.0,29.49,SE,135,0.0,0.0,0,0.00,,,0.22,Weather View 32 v70,2013-05-29 17:16:00,
2013-05-29 10:21:00,52.0,0.0,29.49,WSW,248,0.0,0.0,0,0.00,,,0.22,Weather View 32 v70,2013-05-29 17:21:00,
2013-05-29 10:26:00,52.0,0.0,29.49,South,180,0.0,0.0,0,0.00,,,0.22,Weather View 32 v70,2013-05-29 17:26:00,
2013-05-29 10:31:00,52.0,0.0,29.49,ESE,112,0.0,0.0,0,0.00,,,0.22,Weather View 32 v70,2013-05-29 17:31:00,
2013-05-29 10:36:00,52.0,0.0,29.49,South,180,0.0,0.0,0,0.00,,,0.22,Weather View 32 v70,2013-05-29 17:36:00,
2013-05-29 10:41:00,52.0,0.0,29.49,SSW,202,0.0,0.0,0,0.00,,,0.22,Weather View 32 v70,2013-05-29 17:41:00,
2013-05-29 10:46:00,52.0,0.0,29.50,SW,225,0.0,0.0,0,0.00,,,0.22,Weather View 32 v70,2013-05-29 17:46:00,
2013-05-29 10:51:00,53.0,0.0,29.50,WSW,248,0.0,0.0,0,0.00,,,0.22,Weather View 32 v70,2013-05-29 17:51:00,
2013-05-29 10:56:00,53.0,0.0,29.50,SW,225,0.0,0.0,0,0.00,,,0.22,Weather View 32 v70,2013-05-29 17:56:00,
2013-05-29 11:01:00,53.0,0.0,29.50,WNW,292,0.0,0.0,0,0.00,,,0.22,Weather View 32 v70,2013-05-29 18:01:00,
2013-05-29 11:06:00,52.0,0.0,29.50,SW,225,0.0,0.0,0,0.00,,,0.22,Weather View 32 v70,2013-05-29 18:06:00,
2013-05-29 11:11:00,53.0,0.0,29.51,SSW,202,0.0,0.0,0,0.00,,,0.22,Weather View 32 v70,2013-05-29 18:11:00,
2013-05-29 11:16:00,53.0,0.0,29.51,West,270,0.0,0.0,0,0.00,,,0.22,Weather View 32 v70,2013-05-29 18:16:00,
2013-05-29 11:21:00,53.0,0.0,29.51,ENE,68,0.0,0.0,0,0.00,,,0.22,Weather View 32 v70,2013-05-29 18:21:00,
2013-05-29 11:26:00,53.0,0.0,29.51,NNW,338,0.0,0.0,0,0.00,,,0.22,Weather View 32 v70,2013-05-29 18:26:00,
2013-05-29 11:31:00,53.0,0.0,29.51,SW,225,0.0,0.0,0,0.00,,,0.22,Weather View 32 v70,2013-05-29 18:31:00,
2013-05-29 11:36:00,53.0,0.0,29.51,NNW,338,0.0,0.0,0,0.00,,,0.22,Weather View 32 v70,2013-05-29 18:36:00,
2013-05-29 11:41:00,53.0,0.0,29.51,NNE,22,0.0,0.0,0,0.00,,,0.22,Weather View 32 v70,2013-05-29 18:41:00,
2013-05-29 11:46:00,54.0,0.0,29.51,WSW,248,0.0,0.0,0,0.00,,,0.22,Weather View 32 v70,2013-05-29 18:46:00,
2013-05-29 11:51:00,54.0,0.0,29.51,NE,45,0.0,0.0,0,0.00,,,0.22,Weather View 32 v70,2013-05-29 18:51:00,
2013-05-29 11:56:00,54.0,0.0,29.52,North,0,0.0,0.0,0,0.00,,,0.22,Weather View 32 v70,2013-05-29 18:56:00,
2013-05-29 12:01:00,53.0,0.0,29.52,NE,45,0.0,0.0,0,0.00,,,0.22,Weather View 32 v70,2013-05-29 19:01:00,
2013-05-29 12:06:00,54.0,0.0,29.52,NNW,338,0.0,0.0,0,0.02,,,0.24,Weather View 32 v70,2013-05-29 19:06:00,
2013-05-29 12:11:00,54.0,0.0,29.52,WNW,292,0.0,0.0,0,0.02,,,0.24,Weather View 32 v70,2013-05-29 19:11:00,
2013-05-29 12:16:00,54.0,0.0,29.53,WSW,248,0.0,0.0,0,0.02,,,0.24,Weather View 32 v70,2013-05-29 19:16:00,
2013-05-29 12:21:00,54.0,0.0,29.53,SSW,202,0.0,0.0,0,0.02,,,0.24,Weather View 32 v70,2013-05-29 19:21:00,
2013-05-29 12:26:00,54.0,0.0,29.53,NW,315,0.0,0.0,0,0.02,,,0.24,Weather View 32 v70,2013-05-29 19:26:00,
2013-05-29 12:31:00,54.0,0.0,29.53,SW,225,0.0,0.0,0,0.02,,,0.24,Weather View 32 v70,2013-05-29 19:31:00,
2013-05-29 12:36:00,54.0,0.0,29.53,West,270,0.0,0.0,0,0.02,,,0.24,Weather View 32 v70,2013-05-29 19:36:00,
2013-05-29 12:41:00,54.0,0.0,29.53,WSW,248,0.0,0.0,0,0.02,,,0.24,Weather View 32 v70,2013-05-29 19:41:00,
2013-05-29 12:46:00,54.0,0.0,29.53,NE,45,0.0,0.0,0,0.02,,,0.24,Weather View 32 v70,2013-05-29 19:46:00,
2013-05-29 12:51:00,54.0,0.0,29.53,NNE,22,0.0,0.0,0,0.02,,,0.24,Weather View 32 v70,2013-05-29 19:51:00,
2013-05-29 12:56:00,54.0,0.0,29.53,NNW,338,0.0,0.0,0,0.02,,,0.24,Weather View 32 v70,2013-05-29 19:56:00,
2013-05-29 13:01:00,54.0,0.0,29.54,NNW,338,0.0,0.0,0,0.02,,,0.24,Weather View 32 v70,2013-05-29 20:01:00,
2013-05-29 13:06:00,55.0,0.0,29.54,NE,45,0.0,0.0,0,0.00,,,0.24,Weather View 32 v70,2013-05-29 20:06:00,
2013-05-29 13:11:00,55.0,0.0,29.54,SW,225,0.0,0.0,0,0.00,,,0.24,Weather View 32 v70,2013-05-29 20:11:00,
2013-05-29 13:16:00,55.0,0.0,29.54,South,180,0.0,0.0,0,0.00,,,0.24,Weather View 32 v70,2013-05-29 20:16:00,
2013-05-29 13:21:00,55.0,0.0,29.54,WSW,248,0.0,0.0,0,0.00,,,0.24,Weather View 32 v70,2013-05-29 20:21:00,
2013-05-29 13:26:00,55.0,0.0,29.54,WSW,248,0.0,0.0,0,0.00,,,0.24,Weather View 32 v70,2013-05-29 20:26:00,
2013-05-29 13:31:00,55.0,0.0,29.54,WSW,248,0.0,0.0,0,0.00,,,0.24,Weather View 32 v70,2013-05-29 20:31:00,
2013-05-29 13:36:00,55.0,0.0,29.54,WSW,248,0.0,0.0,0,0.00,,,0.24,Weather View 32 v70,2013-05-29 20:36:00,
2013-05-29 13:41:00,55.0,0.0,29.54,SSW,202,0.0,0.0,0,0.00,,,0.24,Weather View 32 v70,2013-05-29 20:41:00,
2013-05-29 13:46:00,55.0,0.0,29.54,WNW,292,0.0,0.0,0,0.00,,,0.24,Weather View 32 v70,2013-05-29 20:46:00,
2013-05-29 13:51:00,55.0,0.0,29.54,South,180,0.0,0.0,0,0.00,,,0.24,Weather View 32 v70,2013-05-29 20:51:00,
2013-05-29 13:56:00,56.0,0.0,29.54,SSW,202,0.0,0.0,0,0.00,,,0.24,Weather View 32 v70,2013-05-29 20:56:00,
2013-05-29 14:01:00,56.0,0.0,29.54,South,180,0.0,0.0,0,0.00,,,0.24,Weather View 32 v70,2013-05-29 21:01:00,
2013-05-29 14:06:00,56.0,0.0,29.54,WSW,248,0.0,0.0,0,0.00,,,0.24,Weather View 32 v70,2013-05-29 21:06:00,
2013-05-29 14:11:00,56.0,0.0,29.55,NNW,338,0.0,0.0,0,0.00,,,0.24,Weather View 32 v70,2013-05-29 21:11:00,
2013-05-29 14:16:00,56.0,0.0,29.55,NNW,338,0.0,0.0,0,0.00,,,0.24,Weather View 32 v70,2013-05-29 21:16:00,
2013-05-29 14:21:00,56.0,0.0,29.55,NW,315,0.0,0.0,0,0.00,,,0.24,Weather View 32 v70,2013-05-29 21:21:00,
2013-05-29 14:26:00,56.0,0.0,29.55,WNW,292,0.0,0.0,0,0.00,,,0.24,Weather View 32 v70,2013-05-29 21:26:00,
2013-05-29 14:31:00,56.0,0.0,29.55,NE,45,0.0,0.0,0,0.00,,,0.24,Weather View 32 v70,2013-05-29 21:31:00,
2013-05-29 14:36:00,56.0,0.0,29.55,NE,45,0.0,0.0,0,0.00,,,0.24,Weather View 32 v70,2013-05-29 21:36:00,
2013-05-29 14:41:00,55.0,0.0,29.56,NNW,338,0.0,0.0,0,0.00,,,0.24,Weather View 32 v70,2013-05-29 21:41:00,
2013-05-29 14:46:00,54.0,0.0,29.56,NE,45,0.0,0.0,0,0.00,,,0.24,Weather View 32 v70,2013-05-29 21:46:00,
2013-05-29 14:51:00,54.0,0.0,29.57,ESE,112,0.0,0.0,0,0.00,,,0.24,Weather View 32 v70,2013-05-29 21:51:00,
2013-05-29 14:56:00,53.0,0.0,29.57,NNW,338,0.0,0.0,0,0.00,,,0.24,Weather View 32 v70,2013-05-29 21:56:00,
2013-05-29 15:01:00,53.0,0.0,29.57,NE,45,0.0,0.0,0,0.00,,,0.24,Weather View 32 v70,2013-05-29 22:01:00,
2013-05-29 15:06:00,52.0,0.0,29.57,ENE,68,0.0,0.0,0,0.00,,,0.24,Weather View 32 v70,2013-05-29 22:06:00,
2013-05-29 15:11:00,52.0,0.0,29.57,NE,45,0.0,0.0,0,0.00,,,0.24,Weather View 32 v70,2013-05-29 22:11:00,
2013-05-29 15:16:00,52.0,0.0,29.58,East,90,0.0,0.0,0,0.00,,,0.24,Weather View 32 v70,2013-05-29 22:16:00,
2013-05-29 15:21:00,52.0,0.0,29.58,NE,45,0.0,0.0,0,0.00,,,0.24,Weather View 32 v70,2013-05-29 22:21:00,
2013-05-29 15:26:00,52.0,0.0,29.58,NE,45,0.0,0.0,0,0.00,,,0.24,Weather View 32 v70,2013-05-29 22:26:00,
2013-05-29 15:31:00,52.0,0.0,29.58,ESE,112,0.0,0.0,0,0.00,,,0.24,Weather View 32 v70,2013-05-29 22:31:00,
2013-05-29 15:36:00,51.0,0.0,29.59,NW,315,0.0,3.0,0,0.01,,,0.25,Weather View 32 v70,2013-05-29 22:36:00,
2013-05-29 15:41:00,51.0,0.0,29.59,North,0,0.0,3.0,0,0.01,,,0.25,Weather View 32 v70,2013-05-29 22:41:00,
2013-05-29 15:46:00,51.0,0.0,29.59,ENE,68,0.0,3.0,0,0.01,,,0.25,Weather View 32 v70,2013-05-29 22:46:00,
2013-05-29 15:51:00,51.0,0.0,29.60,NE,45,0.0,3.0,0,0.01,,,0.25,Weather View 32 v70,2013-05-29 22:51:00,
2013-05-29 15:56:00,51.0,0.0,29.60,ENE,68,0.0,3.0,0,0.01,,,0.25,Weather View 32 v70,2013-05-29 22:56:00,
2013-05-29 16:01:00,51.0,0.0,29.60,NNE,22,0.0,3.0,0,0.01,,,0.25,Weather View 32 v70,2013-05-29 23:01:00,
2013-05-29 16:06:00,52.0,0.0,29.60,NNE,22,0.0,3.0,0,0.01,,,0.25,Weather View 32 v70,2013-05-29 23:06:00,
2013-05-29 16:11:00,52.0,0.0,29.60,ENE,68,0.0,3.0,0,0.01,,,0.25,Weather View 32 v70,2013-05-29 23:11:00,
2013-05-29 16:16:00,52.0,0.0,29.61,NE,45,0.0,3.0,0,0.01,,,0.25,Weather View 32 v70,2013-05-29 23:16:00,
2013-05-29 16:21:00,52.0,0.0,29.61,ESE,112,0.0,3.0,0,0.01,,,0.25,Weather View 32 v70,2013-05-29 23:21:00,
2013-05-29 16:26:00,52.0,0.0,29.61,North,0,0.0,3.0,0,0.01,,,0.25,Weather View 32 v70,2013-05-29 23:26:00,
2013-05-29 16:31:00,52.0,0.0,29.61,NNE,22,0.0,3.0,0,0.01,,,0.25,Weather View 32 v70,2013-05-29 23:31:00,
2013-05-29 16:36:00,52.0,0.0,29.61,ENE,68,0.0,1.0,0,0.00,,,0.25,Weather View 32 v70,2013-05-29 23:36:00,
2013-05-29 16:41:00,52.0,0.0,29.61,NNE,22,0.0,1.0,0,0.00,,,0.25,Weather View 32 v70,2013-05-29 23:41:00,
2013-05-29 16:46:00,52.0,0.0,29.61,NE,45,0.0,1.0,0,0.00,,,0.25,Weather View 32 v70,2013-05-29 23:46:00,
2013-05-29 16:51:00,52.0,0.0,29.61,North,0,0.0,1.0,0,0.00,,,0.25,Weather View 32 v70,2013-05-29 23:51:00,
2013-05-29 16:56:00,52.0,0.0,29.62,North,0,0.0,1.0,0,0.00,,,0.25,Weather View 32 v70,2013-05-29 23:56:00,
2013-05-29 17:01:00,53.0,0.0,29.62,ENE,68,0.0,1.0,0,0.00,,,0.25,Weather View 32 v70,2013-05-30 00:01:00,
2013-05-29 17:06:00,53.0,0.0,29.62,NE,45,0.0,1.0,0,0.00,,,0.25,Weather View 32 v70,2013-05-30 00:06:00,
2013-05-29 17:11:00,52.0,0.0,29.62,NE,45,0.0,1.0,0,0.00,,,0.25,Weather View 32 v70,2013-05-30 00:11:00,
2013-05-29 17:16:00,52.0,0.0,29.62,NE,45,0.0,1.0,0,0.00,,,0.25,Weather View 32 v70,2013-05-30 00:16:00,
2013-05-29 17:21:00,52.0,0.0,29.63,ENE,68,0.0,1.0,0,0.00,,,0.25,Weather View 32 v70,2013-05-30 00:21:00,
2013-05-29 17:26:00,52.0,0.0,29.63,NNW,338,0.0,1.0,0,0.00,,,0.25,Weather View 32 v70,2013-05-30 00:26:00,
2013-05-29 17:31:00,53.0,0.0,29.63,NNE,22,0.0,1.0,0,0.00,,,0.25,Weather View 32 v70,2013-05-30 00:31:00,
2013-05-29 17:36:00,52.0,0.0,29.63,NE,45,0.0,1.0,0,0.00,,,0.25,Weather View 32 v70,2013-05-30 00:36:00,
2013-05-29 17:41:00,52.0,0.0,29.63,ENE,68,0.0,0.0,0,0.00,,,0.25,Weather View 32 v70,2013-05-30 00:41:00,
2013-05-29 17:46:00,52.0,0.0,29.63,ENE,68,0.0,0.0,0,0.00,,,0.25,Weather View 32 v70,2013-05-30 00:46:00,
2013-05-29 17:51:00,52.0,0.0,29.63,NNE,22,0.0,0.0,0,0.00,,,0.25,Weather View 32 v70,2013-05-30 00:51:00,
2013-05-29 17:56:00,52.0,0.0,29.63,NE,45,0.0,0.0,0,0.00,,,0.25,Weather View 32 v70,2013-05-30 00:56:00,
2013-05-29 18:01:00,52.0,0.0,29.63,NNE,22,0.0,0.0,0,0.00,,,0.25,Weather View 32 v70,2013-05-30 01:01:00,
2013-05-29 18:06:00,52.0,0.0,29.64,North,0,0.0,0.0,0,0.00,,,0.25,Weather View 32 v70,2013-05-30 01:06:00,
2013-05-29 18:11:00,52.0,0.0,29.64,NNE,22,0.0,0.0,0,0.00,,,0.25,Weather View 32 v70,2013-05-30 01:11:00,
2013-05-29 18:16:00,52.0,0.0,29.64,ENE,68,0.0,0.0,0,0.00,,,0.25,Weather View 32 v70,2013-05-30 01:16:00,
2013-05-29 18:21:00,52.0,0.0,29.64,NNW,338,0.0,0.0,0,0.00,,,0.25,Weather View 32 v70,2013-05-30 01:21:00,
2013-05-29 18:26:00,52.0,0.0,29.64,North,0,0.0,0.0,0,0.00,,,0.25,Weather View 32 v70,2013-05-30 01:26:00,
2013-05-29 18:31:00,52.0,0.0,29.64,NE,45,0.0,0.0,0,0.00,,,0.25,Weather View 32 v70,2013-05-30 01:31:00,
2013-05-29 18:36:00,52.0,0.0,29.64,NW,315,0.0,0.0,0,0.00,,,0.25,Weather View 32 v70,2013-05-30 01:36:00,
2013-05-29 18:41:00,52.0,0.0,29.64,NNE,22,0.0,0.0,0,0.00,,,0.25,Weather View 32 v70,2013-05-30 01:41:00,
2013-05-29 18:46:00,52.0,0.0,29.64,NNE,22,0.0,0.0,0,0.00,,,0.25,Weather View 32 v70,2013-05-30 01:46:00,
2013-05-29 18:51:00,52.0,0.0,29.65,NNE,22,0.0,0.0,0,0.00,,,0.25,Weather View 32 v70,2013-05-30 01:51:00,
2013-05-29 18:56:00,52.0,0.0,29.65,WNW,292,0.0,0.0,0,0.00,,,0.25,Weather View 32 v70,2013-05-30 01:56:00,
2013-05-29 19:01:00,52.0,0.0,29.65,NNW,338,0.0,0.0,0,0.00,,,0.25,Weather View 32 v70,2013-05-30 02:01:00,
2013-05-29 19:06:00,52.0,0.0,29.65,North,0,0.0,0.0,0,0.00,,,0.25,Weather View 32 v70,2013-05-30 02:06:00,
2013-05-29 19:11:00,52.0,0.0,29.65,NNW,338,0.0,0.0,0,0.00,,,0.25,Weather View 32 v70,2013-05-30 02:11:00,
2013-05-29 19:16:00,52.0,0.0,29.66,East,90,0.0,0.0,0,0.00,,,0.25,Weather View 32 v70,2013-05-30 02:16:00,
2013-05-29 19:21:00,52.0,0.0,29.66,North,0,0.0,0.0,0,0.00,,,0.25,Weather View 32 v70,2013-05-30 02:21:00,
2013-05-29 19:26:00,52.0,0.0,29.66,NW,315,0.0,0.0,0,0.00,,,0.25,Weather View 32 v70,2013-05-30 02:26:00,
2013-05-29 19:31:00,52.0,0.0,29.67,NNW,338,0.0,0.0,0,0.00,,,0.25,Weather View 32 v70,2013-05-30 02:31:00,
2013-05-29 19:36:00,52.0,0.0,29.67,North,0,0.0,0.0,0,0.00,,,0.25,Weather View 32 v70,2013-05-30 02:36:00,
2013-05-29 19:41:00,52.0,0.0,29.67,East,90,0.0,0.0,0,0.00,,,0.25,Weather View 32 v70,2013-05-30 02:41:00,
2013-05-29 19:46:00,52.0,0.0,29.67,WSW,248,0.0,0.0,0,0.00,,,0.25,Weather View 32 v70,2013-05-30 02:46:00,
2013-05-29 19:51:00,52.0,0.0,29.67,NE,45,0.0,0.0,0,0.00,,,0.25,Weather View 32 v70,2013-05-30 02:51:00,
2013-05-29 19:56:00,51.0,0.0,29.68,ENE,68,0.0,0.0,0,0.00,,,0.25,Weather View 32 v70,2013-05-30 02:56:00,
2013-05-29 20:01:00,51.0,0.0,29.68,NNW,338,0.0,0.0,0,0.00,,,0.25,Weather View 32 v70,2013-05-30 03:01:00,
2013-05-29 20:06:00,51.0,0.0,29.68,WNW,292,0.0,0.0,0,0.00,,,0.25,Weather View 32 v70,2013-05-30 03:06:00,
2013-05-29 20:11:00,51.0,0.0,29.68,North,0,0.0,0.0,0,0.00,,,0.25,Weather View 32 v70,2013-05-30 03:11:00,
2013-05-29 20:16:00,51.0,0.0,29.68,NE,45,0.0,0.0,0,0.00,,,0.25,Weather View 32 v70,2013-05-30 03:16:00,
2013-05-29 20:21:00,51.0,0.0,29.68,North,0,0.0,0.0,0,0.00,,,0.25,Weather View 32 v70,2013-05-30 03:21:00,
2013-05-29 20:26:00,51.0,0.0,29.68,North,0,0.0,0.0,0,0.00,,,0.25,Weather View 32 v70,2013-05-30 03:26:00,
2013-05-29 20:31:00,51.0,0.0,29.68,NNW,338,0.0,0.0,0,0.00,,,0.25,Weather View 32 v70,2013-05-30 03:31:00,
2013-05-29 20:36:00,51.0,0.0,29.68,NE,45,0.0,0.0,0,0.00,,,0.25,Weather View 32 v70,2013-05-30 03:36:00,
2013-05-29 20:41:00,51.0,0.0,29.68,WSW,248,0.0,0.0,0,0.00,,,0.25,Weather View 32 v70,2013-05-30 03:41:00,
2013-05-29 20:46:00,51.0,0.0,29.68,NNW,338,0.0,0.0,0,0.00,,,0.25,Weather View 32 v70,2013-05-30 03:46:00,
2013-05-29 20:51:00,51.0,0.0,29.68,WNW,292,0.0,0.0,0,0.00,,,0.25,Weather View 32 v70,2013-05-30 03:51:00,
2013-05-29 20:56:00,51.0,0.0,29.68,SW,225,0.0,0.0,0,0.00,,,0.25,Weather View 32 v70,2013-05-30 03:56:00,
2013-05-29 21:01:00,51.0,0.0,29.68,West,270,0.0,0.0,0,0.00,,,0.25,Weather View 32 v70,2013-05-30 04:01:00,
2013-05-29 21:06:00,51.0,0.0,29.68,North,0,0.0,0.0,0,0.00,,,0.25,Weather View 32 v70,2013-05-30 04:06:00,
2013-05-29 21:11:00,51.0,0.0,29.68,NNE,22,0.0,0.0,0,0.00,,,0.25,Weather View 32 v70,2013-05-30 04:11:00,
2013-05-29 21:16:00,51.0,0.0,29.68,NNE,22,0.0,0.0,0,0.00,,,0.25,Weather View 32 v70,2013-05-30 04:16:00,
2013-05-29 21:21:00,50.0,0.0,29.68,WSW,248,0.0,0.0,0,0.00,,,0.25,Weather View 32 v70,2013-05-30 04:21:00,
2013-05-29 21:26:00,50.0,0.0,29.68,SSE,158,0.0,0.0,0,0.00,,,0.25,Weather View 32 v70,2013-05-30 04:26:00,
2013-05-29 21:31:00,50.0,0.0,29.68,NNE,22,0.0,0.0,0,0.00,,,0.25,Weather View 32 v70,2013-05-30 04:31:00,
2013-05-29 21:36:00,50.0,0.0,29.68,NW,315,0.0,0.0,0,0.00,,,0.25,Weather View 32 v70,2013-05-30 04:36:00,
2013-05-29 21:41:00,50.0,0.0,29.68,NNW,338,0.0,0.0,0,0.00,,,0.25,Weather View 32 v70,2013-05-30 04:41:00,
2013-05-29 21:46:00,50.0,0.0,29.69,NNW,338,0.0,0.0,0,0.00,,,0.25,Weather View 32 v70,2013-05-30 04:46:00,
2013-05-29 21:51:00,50.0,0.0,29.69,NNW,338,0.0,0.0,0,0.00,,,0.25,Weather View 32 v70,2013-05-30 04:51:00,
2013-05-29 21:56:00,50.0,0.0,29.69,NNW,338,0.0,0.0,0,0.00,,,0.25,Weather View 32 v70,2013-05-30 04:56:00,
2013-05-29 22:01:00,50.0,0.0,29.69,WNW,292,0.0,0.0,0,0.00,,,0.25,Weather View 32 v70,2013-05-30 05:01:00,
2013-05-29 22:06:00,50.0,0.0,29.70,NNW,338,0.0,0.0,0,0.00,,,0.25,Weather View 32 v70,2013-05-30 05:06:00,
2013-05-29 22:11:00,50.0,0.0,29.70,NNW,338,0.0,0.0,0,0.00,,,0.25,Weather View 32 v70,2013-05-30 05:11:00,
2013-05-29 22:16:00,50.0,0.0,29.70,NW,315,0.0,0.0,0,0.00,,,0.25,Weather View 32 v70,2013-05-30 05:16:00,
2013-05-29 22:21:00,50.0,0.0,29.70,NNW,338,0.0,0.0,0,0.00,,,0.25,Weather View 32 v70,2013-05-30 05:21:00,
2013-05-29 22:26:00,50.0,0.0,29.70,NW,315,0.0,0.0,0,0.00,,,0.25,Weather View 32 v70,2013-05-30 05:26:00,
2013-05-29 22:31:00,50.0,0.0,29.70,NW,315,0.0,0.0,0,0.00,,,0.25,Weather View 32 v70,2013-05-30 05:31:00,
2013-05-29 22:36:00,50.0,0.0,29.70,WNW,292,0.0,0.0,0,0.00,,,0.25,Weather View 32 v70,2013-05-30 05:36:00,
2013-05-29 22:41:00,50.0,0.0,29.70,NE,45,0.0,0.0,0,0.00,,,0.25,Weather View 32 v70,2013-05-30 05:41:00,
2013-05-29 22:46:00,50.0,0.0,29.70,West,270,0.0,0.0,0,0.00,,,0.25,Weather View 32 v70,2013-05-30 05:46:00,
2013-05-29 22:51:00,50.0,0.0,29.70,WSW,248,0.0,0.0,0,0.00,,,0.25,Weather View 32 v70,2013-05-30 05:51:00,
2013-05-29 22:56:00,50.0,0.0,29.70,SW,225,0.0,0.0,0,0.00,,,0.25,Weather View 32 v70,2013-05-30 05:56:00,
2013-05-29 23:01:00,50.0,0.0,29.70,SW,225,0.0,0.0,0,0.00,,,0.25,Weather View 32 v70,2013-05-30 06:01:00,
2013-05-29 23:06:00,50.0,0.0,29.70,SW,225,0.0,0.0,0,0.00,,,0.25,Weather View 32 v70,2013-05-30 06:06:00,
2013-05-29 23:11:00,50.0,0.0,29.70,SW,225,0.0,0.0,0,0.00,,,0.25,Weather View 32 v70,2013-05-30 06:11:00,
2013-05-29 23:16:00,50.0,0.0,29.70,SW,225,0.0,0.0,0,0.00,,,0.25,Weather View 32 v70,2013-05-30 06:16:00,
2013-05-29 23:21:00,50.0,0.0,29.70,SW,225,0.0,0.0,0,0.00,,,0.25,Weather View 32 v70,2013-05-30 06:21:00,
2013-05-29 23:26:00,50.0,0.0,29.70,SW,225,0.0,0.0,0,0.00,,,0.25,Weather View 32 v70,2013-05-30 06:26:00,
2013-05-29 23:31:00,50.0,0.0,29.71,SW,225,0.0,0.0,0,0.00,,,0.25,Weather View 32 v70,2013-05-30 06:31:00,
2013-05-29 23:36:00,50.0,0.0,29.71,WSW,248,0.0,0.0,0,0.00,,,0.25,Weather View 32 v70,2013-05-30 06:36:00,
2013-05-29 23:41:00,50.0,0.0,29.71,SW,225,0.0,0.0,0,0.00,,,0.25,Weather View 32 v70,2013-05-30 06:41:00,
2013-05-29 23:46:00,50.0,0.0,29.71,West,270,0.0,0.0,0,0.00,,,0.25,Weather View 32 v70,2013-05-30 06:46:00,
2013-05-29 23:51:00,50.0,0.0,29.71,West,270,0.0,0.0,0,0.00,,,0.25,Weather View 32 v70,2013-05-30 06:51:00,
2013-05-29 23:56:00,50.0,0.0,29.71,SE,135,0.0,0.0,0,0.00,,,0.25,Weather View 32 v70,2013-05-30 06:56:00,